LKKB Weather Reports


time (UTC)temp
F
wind
direction
speed
knots
gust
knots
rain 1hr
in
rain 24hr
in
rain mn
in
humidity
%
barometer
mb
20260508151855 57 340 6.1 0.0 0.00 0.00 0.00 58
20260508150211 59 360 6.1 0.0 0.00 0.00 0.00 54 1018.0
20260508143102 57 360 5.2 0.0 0.00 0.00 0.00 58 1018.0
20260508141853 57 330 4.3 0.0 0.00 0.00 0.00 58
20260508140212 57 330 4.3 0.0 0.00 0.00 0.00 58 1018.0
20260508133103 57 10 4.3 0.0 0.00 0.00 0.00 62 1018.0
20260508131951 57 350 6.1 0.0 0.00 0.00 0.00 62
20260508130210 57 10 5.2 0.0 0.00 0.00 0.00 62 1018.0
20260508123103 55 30 5.2 0.0 0.00 0.00 0.00 66 1018.0
20260508121851 55 360 6.1 0.0 0.00 0.00 0.00 62
20260508120211 55 360 7.0 0.0 0.00 0.00 0.00 66 1018.0
20260508113103 55 360 5.2 0.0 0.00 0.00 0.00 66 1018.0
20260508111853 54 360 4.3 0.0 0.00 0.00 0.00 66
20260508103103 54 340 7.0 0.0 0.00 0.00 0.00 71 1018.0
20260508102053 54 330 6.1 0.0 0.00 0.00 0.00 66
20260508100210 54 320 5.2 0.0 0.00 0.00 0.00 71 1018.0
20260508093103 52 310 6.1 0.0 0.00 0.00 0.00 76 1019.0
20260508091851 52 310 6.1 0.0 0.00 0.00 0.00 76
20260508090211 52 300 6.1 0.0 0.00 0.00 0.00 76 1018.0
20260508083103 50 310 5.2 0.0 0.00 0.00 0.00 81 1018.0
20260508081851 50 300 6.1 0.0 0.00 0.00 0.00 76
20260508080210 50 300 6.1 0.0 0.00 0.00 0.00 76 1018.0
20260508073103 50 300 5.2 0.0 0.00 0.00 0.00 76 1018.0
20260508071954 48 330 6.1 0.0 0.00 0.00 0.00 81
20260508063102 48 320 5.2 0.0 0.00 0.00 0.00 81 1017.0
20260508061853 48 310 4.3 0.0 0.00 0.00 0.00 81
20260508060103 48 320 4.3 0.0 0.00 0.00 0.00 81 1017.0
20260508053102 46 330 6.1 0.0 0.00 0.00 0.00 87 1017.0
20260508051853 46 310 6.1 0.0 0.00 0.00 0.00 87
20260508043103 46 310 5.2 0.0 0.00 0.00 0.00 93 1017.0
20260508042055 46 320 4.3 0.0 0.00 0.00 0.00 87
20260508040104 46 310 4.3 0.0 0.00 0.00 0.00 93 1017.0
20260508035402 46 300 4.3 0.0 0.00 0.00 0.00 93 1017.0
20260508033802 46 290 2.6 0.0 0.00 0.00 0.00 87 1017.0
20260508033102 46 300 2.6 0.0 0.00 0.00 0.00 87 1016.0
20260508031852 46 330 4.3 0.0 0.00 0.00 0.00 87
20260508031808 46 320 2.6 0.0 0.00 0.00 0.00 87 1016.0
20260508030103 46 320 4.3 0.0 0.00 0.00 0.00 93 1016.0
20260508023102 46 330 4.3 0.0 0.00 0.00 0.00 93 1016.0
20260508021852 46 330 6.1 0.0 0.00 0.00 0.00 93
20260508020212 48 330 4.3 0.0 0.00 0.00 0.00 87 1016.0
20260508013103 48 320 6.1 0.0 0.00 0.00 0.00 87 1016.0
20260508011951 48 320 6.1 0.0 0.00 0.00 0.00 87
20260508010211 48 320 6.1 0.0 0.00 0.00 0.00 87 1016.0
20260508003103 48 310 6.1 0.0 0.00 0.00 0.00 87 1016.0
20260508001851 48 300 6.1 0.0 0.00 0.00 0.00 87
20260507233103 50 300 4.3 0.0 0.00 0.00 0.00 87 1016.0
20260507232103 50 290 5.2 0.0 0.00 0.00 0.00 87 1016.0
20260507231851 50 340 6.1 0.0 0.00 0.00 0.00 87
20260507231003 50 300 5.2 0.0 0.00 0.00 0.00 87 1016.0
20260507230603 50 320 5.2 0.0 0.00 0.00 0.00 87 1016.0
20260507225402 50 330 6.1 0.0 0.00 0.00 0.00 87 1016.0
20260507223102 50 320 5.2 0.0 0.00 0.00 0.00 87 1016.0
20260507222602 50 320 5.2 0.0 0.00 0.00 0.00 87 1016.0
20260507222153 50 320 6.1 0.0 0.00 0.00 0.00 87
20260507213103 50 320 6.1 0.0 0.00 0.00 0.00 87 1016.0
20260507211853 50 320 7.8 0.0 0.00 0.00 0.00 87
20260507210103 50 320 7.0 0.0 0.00 0.00 0.00 87 1016.0
20260507203103 52 320 7.0 0.0 0.00 0.00 0.00 87 1015.0
20260507201854 52 340 6.1 0.0 0.00 0.00 0.00 87
20260507200212 52 340 6.1 0.0 0.00 0.00 0.00 87 1015.0
20260507193102 52 310 7.0 0.0 0.00 0.00 0.00 87 1014.0
20260507191954 54 310 7.8 0.0 0.00 0.00 0.00 81
20260507183102 54 280 6.1 0.0 0.00 0.00 0.00 81 1014.0
20260507181851 54 280 7.8 0.0 0.00 0.00 0.00 76
20260507173102 57 280 7.8 0.0 0.00 0.00 0.00 67 1013.0
20260507171851 57 250 10.4 0.0 0.00 0.00 0.00 67
20260507163103 57 270 10.4 0.0 0.00 0.00 0.00 62 1013.0
20260507162154 59 280 12.2 0.0 0.00 0.00 0.00 58
20260507160104 59 280 12.2 0.0 0.00 0.00 0.00 58 1012.0
20260507153355 59 260 14.8 0.0 0.00 0.00 0.00 58 1012.0
20260507153103 59 260 14.8 0.0 0.00 0.00 0.00 58 1012.0